sat.trackr.live / text

‹ back to catalog

STARLINK-33989

NORAD 63929 · 2025-098D

PAYLOAD ACTIVE UNKNOWN

§ Identity

Operator
Country
US
Launch date
2025-05-13
Launch site
AFWTR
Launch vehicle
Mass (kg)
RCS (m²)

Purposes: comms

External: N2YO · Heavens-Above · Gunter

§ Orbital elements

Epoch: 2026-09-20T21:59:11.199840Z

Period
94.14 min
Inclination
70.0009°
Eccentricity
0.0001561
Mean motion
15.29589374 rev/d
Perigee alt
476.0 km
Apogee alt
478.1 km
Semi-major
6,855.2 km
B*
2.3681e-4
RAAN
139.9090°
Arg perigee
262.4217°
Mean anomaly
97.6781°
Rev number
7,587

§ Raw data

STARLINK-339891 63929U 25098D   26263.91610185  .00006687  00000+0  23681-3 0  99922 63929  70.0009 139.9090 0001561 262.4217  97.6781 15.29589374 75873

JSON: /api/v1/satellites/63929 · /tle

For live sub-satellite position, see the globe view (requires WebGL).

§ Visibility from observer

Set your observer location to see the next 7 days of passes ≥ 10°. The values pass through the URL so the page stays shareable.

No JS? Fill the form by hand. The geolocation button needs JavaScript.